Flag for Canada Weather past 2 weeks in Kenora, Ontario, Canada

Now
64 °F

Broken clouds.


Feels Like: 64 °F
Forecast: 62 / 75 °F
Wind: 5 mph from South

Location: Kenora

Current Time: Jul 25, 2014 at 8:52:32 AM

Latest Report: Jul 25, 2014 at 8:00 AM


Visibility: 15 mi

Pressure: 29.79 "Hg

Humidity: 83%

Dew point: 59 °F

Location of KenoraLocation

Historic Weather in Kenora — Graph

°F

Kenora temperature yesterday

Maximum temperature yesterday: 73 °F (at 3:00 PM)
Minimum temperature yesterday: 52 °F (at 5:00 AM)
Average temperature yesterday: 66 °F

Past Weeks' High & Low Weather Summary

 TemperatureHumidityPressure
High86 °F (Jul 20, 6:00 PM)100% (Jul 13, 11:00 PM)30.34 "Hg (Jul 13, 11:00 PM)
Low48 °F (Jul 13, 11:00 PM)34% (Jul 11, 3:00 PM)29.58 "Hg (Jul 20, 2:00 PM)
Average65 °F72%29.93 "Hg
* Reported Jul 10 7:00 AM — Jul 25 7:00 AM, Kenora, Weather by CustomWeather, © 2014

Note: Actual official high and low records may vary slightly from our data, if they occured in-between our weather recording intervals... More about our weather records

Advertising

Kenora weather history for previous 24 hours

 ConditionsComfort  
Time TempWeatherWind HumidityBarometerVisibility
7:00 AM
Jul 25
63 °FBroken clouds.7 mph83%29.78 "Hg15 mi
6:00 AM61 °FPassing clouds.5 mph88%29.79 "Hg15 mi
5:00 AM59 °FPassing clouds.6 mph94%29.81 "Hg15 mi
4:00 AM59 °FPassing clouds.3 mph94%29.83 "Hg15 mi
3:00 AM59 °FPassing clouds.3 mph94%29.86 "Hg15 mi
2:00 AM63 °FPassing clouds.3 mph83%29.87 "Hg15 mi
1:00 AM64 °FPassing clouds.5 mph78%29.88 "Hg15 mi
12:00 AM64 °FPassing clouds.2 mph73%29.89 "Hg15 mi
11:00 PM
Jul 24
64 °FPartly cloudy.5 mph78%29.87 "Hg15 mi
10:00 PM64 °FBroken clouds.5 mph73%29.88 "Hg15 mi
9:00 PM68 °FBroken clouds.2 mph64%29.90 "Hg15 mi
8:00 PM70 °FPartly sunny.5 mph60%29.93 "Hg15 mi
7:00 PM72 °FPartly sunny.6 mph53%29.94 "Hg15 mi
6:00 PM73 °FPartly sunny.9 mph53%29.96 "Hg15 mi
5:00 PM73 °FPartly sunny.7 mph50%29.96 "Hg15 mi
4:00 PM73 °FBroken clouds.10 mph50%29.96 "Hg15 mi
3:00 PM73 °FBroken clouds.8 mph50%29.97 "Hg15 mi
2:00 PM72 °FBroken clouds.7 mph53%30.01 "Hg15 mi
1:00 PM72 °FBroken clouds.10 mph50%30.07 "Hg15 mi
12:00 PM70 °FBroken clouds.12 mph57%30.09 "Hg15 mi
11:00 AM68 °FPartly sunny.10 mph56%30.11 "Hg15 mi
10:00 AM68 °FPartly sunny.7 mph49%30.12 "Hg15 mi
9:00 AM64 °FPartly sunny.6 mph73%30.13 "Hg15 mi
8:00 AM59 °FBroken clouds.6 mph77%30.15 "Hg15 mi
Weather by CustomWeather, © 2014

See weather overviewHow to use our weather pages